Regional Weather Roundup
Issued by NWS

Home | Current Version | Previous Version | Graphics & Text | Print | Product List | Glossary On
Versions: 1 2 3 4 5 6 7 8 9 10 11 12 13 14 15 16 17 18 19 20 21 22 23 24 25 26 27 28 29 30 31 32 33 34 35 36 37 38 39 40 41 42 43 44 45 46 47 48 49 50
000
ASUS43 KIND 240109
RWRIN

WEATHER ROUNDUP FOR INDIANA
NATIONAL WEATHER SERVICE INDIANAPOLIS IN
900 PM EDT MON MAY 23 2016

NOTE: "FAIR" INDICATES FEW OR NO CLOUDS BELOW 12,000 FEET WITH NO
SIGNIFICANT WEATHER AND/OR OBSTRUCTIONS TO VISIBILITY.

* - STATION DOES NOT REPORT WEATHER SUCH AS PRECIPITATION OR FOG.

+ - STATION NOT QUALITY CONTROLLED BY THE NATIONAL WEATHER SERVICE.
    USE DATA WITH CAUTION...ESPECIALLY DEWPOINT AND RELATIVE
    HUMIDITY OBSERVATIONS.

INZ001>003-010>013-019-020-240200-
NORTHWEST INDIANA

CITY           SKY/WX    TMP DP  RH WIND       PRES   REMARKS
GARY /AIRPORT/ PTCLDY    68  61  77 SE6       29.93S
KNOX *+        CLEAR     70  23  17 SE7       29.96S
LA PORTE +     CLEAR     75  32  20 SE3       29.97R
MICHIGAN CITY+ CLEAR     70  39  32 CALM      29.96R
MONTICELLO +   CLEAR     73  28  18 CALM      29.96S
RENSSELAER +   CLEAR     73  32  21 S6        29.96R
VALPARAISO     CLEAR     73  36  25 S6        29.96R

$$

LMZ046-743>745-240200-
SOUTHERN LAKE MICHIGAN

STATION/POSITION TIME  TEMP    WIND        PRES    WAVE
                       AIR SEA DIR/SP/G            HT
                 (UTC) (F)     (DEG/KT/KT) (MB)    (FT)
BURNS HARBOR     0000   63      80/  7/ 10 1014.2F
MICHIGAN CITY    0000   63     360/  6/  6   N/A
5NW MICH CITY    0100   61 58   70/  6/  6   N/A     0

$$

INZ004-005-014>016-021>024-240200-
NORTH CENTRAL INDIANA

CITY           SKY/WX    TMP DP  RH WIND       PRES   REMARKS
ELKHART        CLEAR     72  41  33 S3        29.98R
GOSHEN         CLEAR     68  31  25 S5        29.98R
LOGANSPORT +   CLEAR     70  39  32 S5        29.99R
PERU/GRISSOM   CLEAR     70  37  29 S5        29.98R
ROCHESTER +    CLEAR     72  43  35 CALM      29.99R
SOUTH BEND     CLEAR     71  35  26 S6        29.97S
WARSAW +       CLEAR     64  36  34 CALM      29.99R

$$

INZ006>009-017-018-025>027-240200-
NORTHEAST INDIANA

CITY           SKY/WX    TMP DP  RH WIND       PRES   REMARKS
ANGOLA *+      CLEAR     64  45  48 CALM      30.00R
AUBURN +       CLEAR     64  39  39 CALM      30.00S
FORT WAYNE     CLEAR     70  37  29 S3        29.99S
HUNTINGTON +   CLEAR    N/A N/A N/A CALM      29.99R

$$

INZ028-029-035-036-043>045-051>053-240200-
WEST CENTRAL INDIANA

CITY           SKY/WX    TMP DP  RH WIND       PRES   REMARKS
CRAWFORDSVL +  CLEAR     66  45  47 SE5       29.98S
GREENCASTLE +  CLEAR     68  50  52 CALM      29.99S
LAFAYETTE      CLEAR     71  39  31 CALM      29.96S
TERRE HAUTE    CLEAR     69  51  52 CALM      29.97S

$$

INZ030>032-037>040-046>048-054>057-064-065-240200-
CENTRAL INDIANA

CITY           SKY/WX    TMP DP  RH WIND       PRES   REMARKS
CP ATTERBURY + CLEAR     64  46  52 CALM      30.00S
COLUMBUS       CLEAR     68  45  42 SW5       30.00R
FISHERS *+     CLEAR     63  50  63 CALM      30.00
FRANKFORT +      N/A     72  13  10 CALM      30.01R
GREENWOOD *+   CLEAR     70  39  32 S3        30.00R
INDIANAPOLIS   PTCLDY    72  38  29 S6        29.99R
-EAGLE CREEK   CLEAR     72  37  28 CALM      29.99R
KOKOMO *+      CLEAR     70  39  32 S6        29.99R
MARION +       CLEAR     68  38  32 CALM      30.00R
SHELBYVILLE    CLEAR     70  46  42 S5        29.99R
ZIONSVILLE +   CLEAR     67  45  44 CALM      30.00R

$$

INZ033-034-041-042-049-050-058-059-240200-
EAST CENTRAL INDIANA

CITY           SKY/WX    TMP DP  RH WIND       PRES   REMARKS
MUNCIE         CLEAR     74  38  27 SE3       30.00R

$$

INZ060-061-067>069-081>083-085>088-240200-
SOUTHWEST INDIANA

CITY           SKY/WX    TMP DP  RH WIND       PRES   REMARKS
EVANSVILLE     CLOUDY    72  49  44 CALM      29.97R
HUNTINGBURG *+ CLEAR     70  46  43 SE3       29.99R
WASHINGTON +   CLEAR     67  58  75 CALM      29.97S

$$

INZ062-063-066-070>080-084-089>092-240200-
SOUTH CENTRAL AND SOUTHEAST INDIANA

CITY           SKY/WX    TMP DP  RH WIND       PRES   REMARKS
BEDFORD +      CLEAR     68  57  68 CALM      29.99R
BLOOMINGTON    CLEAR     66  51  58 CALM      29.99R
MADISON *+     CLEAR     68  48  49 CALM      30.03R
NORTH VERNON + CLEAR     68  55  64 CALM      30.01
SEYMOUR +      CLEAR     70  52  52 CALM      30.00R

$$




USA.gov is the U.S. government's official web portal to all federal, state and local government web resources and services.